When you browse on this site, cookies collect data to enhance your experience and personalize the content and advertising you see.
Visit our Privacy Policy to learn more. By continuing to use the site, you agree to this use of cookies and data.
  • en France
  • Liste des pays
  • À 7 jours
  • Température de l'eau
  • Carte météo
  • Widgets météo
  • user-avatar
    Se connecter

    Météo par heure à Brasília

    Ce jour, 15 Novembre, Vendredi

    Heure Température Précipitation Vent Pression Humidité
    00:00 +23°C° 0.1 mm 2 m/s 664 mmHg 71%
    01:00 +23°C° 0.2 mm 2 m/s 664 mmHg 73%
    02:00 +22°C° 0.2 mm 1 m/s 663 mmHg 75%
    03:00 +22°C° 0.2 mm 1 m/s 663 mmHg 77%
    04:00 +22°C° 0 mm 1 m/s 663 mmHg 78%
    05:00 +21°C° 0 mm 1 m/s 663 mmHg 80%
    06:00 +21°C° 0 mm 1 m/s 663 mmHg 81%
    07:00 +23°C° 0.1 mm 1 m/s 664 mmHg 74%
    08:00 +25°C° 0.1 mm 1 m/s 665 mmHg 68%
    09:00 +26°C° 0.1 mm 1 m/s 666 mmHg 61%
    10:00 +28°C° 0.8 mm 2 m/s 666 mmHg 56%
    11:00 +29°C° 0.8 mm 2 m/s 666 mmHg 51%
    12:00 +31°C° 0.8 mm 2 m/s 665 mmHg 46%
    13:00 +30°C° 0.1 mm 3 m/s 665 mmHg 46%
    14:00 +30°C° 0.1 mm 3 m/s 664 mmHg 46%
    15:00 +30°C° 0.1 mm 3 m/s 663 mmHg 46%
    16:00 +29°C° 0.1 mm 3 m/s 663 mmHg 52%
    17:00 +27°C° 0.1 mm 2 m/s 662 mmHg 57%
    18:00 +26°C° 0.1 mm 2 m/s 662 mmHg 63%
    19:00 +25°C° 0.2 mm 1 m/s 662 mmHg 67%
    20:00 +24°C° 0.2 mm 1 m/s 663 mmHg 72%
    21:00 +23°C° 0.2 mm 1 m/s 663 mmHg 76%
    22:00 +23°C° 0.3 mm 1 m/s 663 mmHg 77%
    23:00 +23°C° 0.3 mm 1 m/s 663 mmHg 78%

    Demain, 16 Novembre, Samedi

    Heure Température Précipitation Vent Pression Humidité
    00:00 +20°C° 0.3 mm 0 m/s 663 mmHg 79%
    01:00 +20°C° 0.2 mm 0 m/s 662 mmHg 80%
    02:00 +22°C° 0.2 mm 1 m/s 662 mmHg 81%
    03:00 +22°C° 0.2 mm 1 m/s 661 mmHg 82%
    04:00 +22°C° 0.1 mm 1 m/s 661 mmHg 83%
    05:00 +22°C° 0.1 mm 1 m/s 662 mmHg 83%
    06:00 +20°C° 0.1 mm 0 m/s 662 mmHg 84%
    07:00 +22°C° 1.1 mm 1 m/s 662 mmHg 83%
    08:00 +22°C° 1.1 mm 1 m/s 663 mmHg 83%
    09:00 +23°C° 1.1 mm 1 m/s 663 mmHg 83%
    10:00 +24°C° 0.4 mm 1 m/s 663 mmHg 78%
    11:00 +25°C° 0.4 mm 1 m/s 663 mmHg 74%
    12:00 +26°C° 0.4 mm 1 m/s 663 mmHg 69%
    13:00 +25°C° 0.8 mm 2 m/s 663 mmHg 70%
    14:00 +25°C° 0.8 mm 3 m/s 662 mmHg 72%
    15:00 +23°C° 0.8 mm 4 m/s 661 mmHg 73%
    16:00 +24°C° 0.1 mm 3 m/s 661 mmHg 76%
    17:00 +23°C° 0.1 mm 2 m/s 661 mmHg 78%
    18:00 +23°C° 0.1 mm 2 m/s 661 mmHg 80%
    19:00 +22°C° 0 mm 1 m/s 661 mmHg 80%
    20:00 +22°C° 0 mm 1 m/s 662 mmHg 80%
    21:00 +22°C° 0 mm 1 m/s 662 mmHg 79%
    22:00 +22°C° 0 mm 1 m/s 662 mmHg 81%
    23:00 +21°C° 0 mm 2 m/s 662 mmHg 82%

    Après-demain, 17 Novembre, Dimanche

    Heure Température Précipitation Vent Pression Humidité
    00:00 +20°C° 0 mm 2 m/s 662 mmHg 84%
    01:00 +20°C° 0 mm 2 m/s 662 mmHg 84%
    02:00 +21°C° 0 mm 1 m/s 661 mmHg 84%
    03:00 +21°C° 0 mm 1 m/s 661 mmHg 85%
    04:00 +21°C° 0 mm 1 m/s 661 mmHg 84%
    05:00 +19°C° 0 mm 0 m/s 661 mmHg 84%
    06:00 +19°C° 0 mm 0 m/s 662 mmHg 83%
    07:00 +21°C° 0.1 mm 0 m/s 662 mmHg 76%
    08:00 +24°C° 0.1 mm 1 m/s 663 mmHg 68%
    09:00 +26°C° 0.1 mm 1 m/s 664 mmHg 61%
    10:00 +28°C° 0.5 mm 1 m/s 664 mmHg 57%
    11:00 +29°C° 0.5 mm 1 m/s 664 mmHg 52%
    12:00 +31°C° 0.5 mm 1 m/s 664 mmHg 47%
    13:00 +30°C° 0.5 mm 1 m/s 664 mmHg 50%
    14:00 +29°C° 0.5 mm 1 m/s 663 mmHg 53%
    15:00 +28°C° 0.5 mm 2 m/s 662 mmHg 57%
    16:00 +27°C° 1.1 mm 2 m/s 662 mmHg 63%
    17:00 +26°C° 1.1 mm 1 m/s 661 mmHg 69%
    18:00 +24°C° 1.1 mm 1 m/s 661 mmHg 74%
    19:00 +24°C° 0.5 mm 1 m/s 662 mmHg 76%
    20:00 +23°C° 0.5 mm 1 m/s 662 mmHg 77%
    21:00 +21°C° 0.5 mm 0 m/s 662 mmHg 78%
    22:00 +23°C° 0.5 mm 1 m/s 662 mmHg 81%
    23:00 +22°C° 0.5 mm 1 m/s 662 mmHg 83%

    18 Novembre, Lundi

    Heure Température Précipitation Vent Pression Humidité
    00:00 +22°C° 0.5 mm 1 m/s 662 mmHg 85%
    01:00 +22°C° 1.1 mm 1 m/s 662 mmHg 85%
    02:00 +22°C° 1.1 mm 1 m/s 662 mmHg 85%
    03:00 +22°C° 1.1 mm 1 m/s 662 mmHg 86%
    04:00 +22°C° 0.4 mm 1 m/s 662 mmHg 85%
    05:00 +22°C° 0.4 mm 1 m/s 662 mmHg 85%
    06:00 +22°C° 0.4 mm 1 m/s 663 mmHg 84%
    07:00 +23°C° 0.2 mm 1 m/s 663 mmHg 82%
    08:00 +23°C° 0.2 mm 2 m/s 664 mmHg 79%
    09:00 +24°C° 0.2 mm 2 m/s 664 mmHg 77%
    10:00 +26°C° 1.7 mm 2 m/s 665 mmHg 72%
    11:00 +27°C° 1.7 mm 2 m/s 665 mmHg 67%
    12:00 +28°C° 1.7 mm 2 m/s 665 mmHg 62%
    13:00 +28°C° 2.5 mm 2 m/s 664 mmHg 65%
    14:00 +27°C° 2.5 mm 2 m/s 664 mmHg 69%
    15:00 +26°C° 2.5 mm 2 m/s 663 mmHg 73%
    16:00 +25°C° 5.6 mm 2 m/s 663 mmHg 78%
    17:00 +23°C° 5.6 mm 2 m/s 662 mmHg 84%
    18:00 +21°C° 5.6 mm 2 m/s 662 mmHg 90%
    19:00 +22°C° 0.9 mm 1 m/s 663 mmHg 89%
    20:00 +22°C° 0.9 mm 1 m/s 663 mmHg 87%
    21:00 +22°C° 0.9 mm 1 m/s 664 mmHg 86%
    22:00 +21°C° 0.8 mm 1 m/s 664 mmHg 87%
    23:00 +21°C° 0.8 mm 1 m/s 664 mmHg 89%

    19 Novembre, Mardi

    Heure Température Précipitation Vent Pression Humidité
    00:00 +21°C° 0.8 mm 1 m/s 664 mmHg 90%
    01:00 +21°C° 0.8 mm 1 m/s 664 mmHg 91%
    02:00 +20°C° 0.8 mm 1 m/s 663 mmHg 91%
    03:00 +20°C° 0.8 mm 1 m/s 663 mmHg 92%
    04:00 +20°C° 0.6 mm 1 m/s 664 mmHg 93%
    05:00 +19°C° 0.6 mm 2 m/s 664 mmHg 93%
    06:00 +19°C° 0.6 mm 2 m/s 664 mmHg 94%
    07:00 +20°C° 0.4 mm 2 m/s 665 mmHg 91%
    08:00 +20°C° 0.4 mm 2 m/s 665 mmHg 89%
    09:00 +20°C° 0.4 mm 3 m/s 666 mmHg 87%
    10:00 +20°C° 0.3 mm 3 m/s 666 mmHg 86%
    11:00 +20°C° 0.3 mm 3 m/s 666 mmHg 85%
    12:00 +21°C° 0.3 mm 3 m/s 665 mmHg 85%
    13:00 +21°C° 0.1 mm 3 m/s 665 mmHg 84%
    14:00 +21°C° 0.1 mm 2 m/s 664 mmHg 84%
    15:00 +21°C° 0.1 mm 2 m/s 664 mmHg 83%
    16:00 +21°C° 0.4 mm 2 m/s 664 mmHg 85%
    17:00 +21°C° 0.4 mm 2 m/s 664 mmHg 86%
    18:00 +22°C° 0.4 mm 1 m/s 664 mmHg 88%
    19:00 +21°C° 0.1 mm 1 m/s 664 mmHg 88%
    20:00 +21°C° 0.1 mm 1 m/s 664 mmHg 88%
    21:00 +19°C° 0.1 mm 0 m/s 665 mmHg 89%
    22:00 +21°C° 0.4 mm 1 m/s 665 mmHg 89%
    23:00 +21°C° 0.4 mm 1 m/s 665 mmHg 89%

    20 Novembre, Mercredi

    Heure Température Précipitation Vent Pression Humidité
    00:00 +20°C° 0.4 mm 1 m/s 665 mmHg 89%
    01:00 +20°C° 0.2 mm 1 m/s 664 mmHg 89%
    02:00 +20°C° 0.2 mm 1 m/s 664 mmHg 90%
    03:00 +20°C° 0.2 mm 1 m/s 664 mmHg 90%
    04:00 +20°C° 0.3 mm 1 m/s 664 mmHg 90%
    05:00 +20°C° 0.3 mm 1 m/s 664 mmHg 90%
    06:00 +20°C° 0.3 mm 1 m/s 664 mmHg 90%
    07:00 +20°C° 0.1 mm 1 m/s 665 mmHg 88%
    08:00 +21°C° 0.1 mm 1 m/s 666 mmHg 87%
    09:00 +21°C° 0.1 mm 1 m/s 666 mmHg 85%
    10:00 +22°C° 0.4 mm 1 m/s 666 mmHg 81%
    11:00 +23°C° 0.4 mm 2 m/s 666 mmHg 77%
    12:00 +24°C° 0.4 mm 2 m/s 666 mmHg 73%
    13:00 +25°C° 0.6 mm 2 m/s 666 mmHg 72%
    14:00 +25°C° 0.6 mm 2 m/s 665 mmHg 71%
    15:00 +25°C° 0.6 mm 2 m/s 665 mmHg 69%
    16:00 +24°C° 0.6 mm 2 m/s 665 mmHg 74%
    17:00 +23°C° 0.6 mm 2 m/s 664 mmHg 79%
    18:00 +21°C° 0.6 mm 2 m/s 664 mmHg 84%
    19:00 +22°C° 0.8 mm 1 m/s 664 mmHg 85%
    20:00 +22°C° 0.8 mm 1 m/s 665 mmHg 86%
    21:00 +21°C° 0.8 mm 1 m/s 665 mmHg 86%
    22:00 +21°C° 0.3 mm 1 m/s 665 mmHg 86%
    23:00 +21°C° 0.3 mm 1 m/s 665 mmHg 86%
    Voir plus